This is the latest recevied weather packets stored in our database for station/object KI8L. If no packets are shown the sender has not sent any weather packets the latest 10 day(s).
| Time | Temp. | Humidity | Pressure | Rain* | Wind** | Luminosity | Snow |
|---|---|---|---|---|---|---|---|
| 1777321634 | 23.33° C | 60% | 1017.8 hPa | 0 mm | - | 295 W/m² | - |
| 1777321330 | 22.78° C | 61% | 1018 hPa | 0 mm | - | 318 W/m² | - |
| 1777321027 | 22.78° C | 60% | 1017.9 hPa | 0 mm | - | 344 W/m² | - |
| 1777320726 | 22.78° C | 62% | 1017.9 hPa | 0 mm | - | 339 W/m² | - |
| 1777320422 | 22.78° C | 61% | 1017.9 hPa | 0 mm | - | 333 W/m² | - |
| 1777320119 | 22.78° C | 61% | 1018 hPa | 0 mm | - | 361 W/m² | - |
| 1777319816 | 22.78° C | 60% | 1017.9 hPa | 0 mm | - | 344 W/m² | - |
| 1777319513 | 22.78° C | 62% | 1018 hPa | 0 mm | - | 344 W/m² | - |
| 1777319210 | 22.78° C | 64% | 1017.8 hPa | 0 mm | - | 364 W/m² | - |
| 1777318907 | 22.78° C | 63% | 1017.9 hPa | 0 mm | - | 383 W/m² | - |
| 1777318604 | 22.22° C | 62% | 1018.1 hPa | 0 mm | - | 396 W/m² | - |
| 1777318300 | 22.22° C | 61% | 1018.3 hPa | 0 mm | - | 367 W/m² | - |
| 1777317997 | 22.22° C | 65% | 1018.2 hPa | 0 mm | - | 414 W/m² | - |
| 1777317694 | 22.22° C | 62% | 1018.5 hPa | 0 mm | - | 435 W/m² | - |
| 1777317391 | 22.22° C | 65% | 1018.4 hPa | 0 mm | - | 469 W/m² | - |
| 1777317087 | 22.22° C | 61% | 1018.7 hPa | 0 mm | - | 532 W/m² | - |
| 1777316784 | 22.22° C | 62% | 1018.8 hPa | 0 mm | - | 502 W/m² | - |
| 1777316481 | 22.22° C | 62% | 1018.9 hPa | 0 mm | - | 592 W/m² | - |
| 1777316178 | 21.67° C | 62% | 1018.7 hPa | 0 mm | - | 556 W/m² | - |
| 1777315875 | 22.22° C | 63% | 1018.9 hPa | 0 mm | - | 550 W/m² | - |
| 1777315574 | 21.67° C | 65% | 1019.2 hPa | 0 mm | - | 527 W/m² | - |
| 1777315271 | 21.11° C | 67% | 1019.3 hPa | 0 mm | - | 523 W/m² | - |
| 1777314969 | 22.22° C | 66% | 1019.5 hPa | 0 mm | - | 543 W/m² | - |
| 1777314664 | 21.67° C | 71% | 1019.6 hPa | 0 mm | - | 621 W/m² | - |
| 1777314361 | 20.56° C | 70% | 1019.6 hPa | 0 mm | - | 580 W/m² | - |
* Rain latest hour (hover to see other rain measurements)
** Current wind speed in m/s (hover to see current wind gust speed)